TimeEDT,TemperatureF,Dew PointF,Humidity,Sea Level PressureIn,VisibilityMPH,Wind Direction,Wind SpeedMPH,Gust SpeedMPH,PrecipitationIn,Events,Conditions,WindDirDegrees,DateUTC
12:55 AM,71.1,64.0,78,30.00,10.0,SSW,12.7,-,N/A,,Clear,200,2013-06-24 04:55:00
1:55 AM,72.0,64.0,76,29.99,10.0,SSW,11.5,-,N/A,,Clear,210,2013-06-24 05:55:00
2:55 AM,70.0,64.0,81,29.99,10.0,SSW,9.2,-,N/A,,Clear,200,2013-06-24 06:55:00
3:55 AM,71.1,64.0,78,29.99,10.0,SSW,11.5,-,N/A,,Clear,200,2013-06-24 07:55:00
4:55 AM,72.0,64.0,76,29.98,10.0,SSW,11.5,-,N/A,,Clear,210,2013-06-24 08:55:00
5:55 AM,71.1,64.0,78,29.99,10.0,South,11.5,20.7,N/A,,Mostly Cloudy,190,2013-06-24 09:55:00
6:55 AM,71.1,64.9,81,29.99,10.0,SSW,9.2,-,N/A,,Scattered Clouds,200,2013-06-24 10:55:00
7:37 AM,71.6,64.4,78,30.02,8.0,SSW,15.0,21.9,N/A,,Mostly Cloudy,200,2013-06-24 11:37:00
7:50 AM,71.6,64.4,78,30.02,8.0,SSW,12.7,20.7,N/A,,Mostly Cloudy,210,2013-06-24 11:50:00
7:55 AM,71.1,64.9,81,30.01,8.0,SSW,11.5,-,N/A,,Mostly Cloudy,210,2013-06-24 11:55:00
8:32 AM,71.6,64.4,78,30.03,7.0,SSW,15.0,-,N/A,,Mostly Cloudy,210,2013-06-24 12:32:00
8:49 AM,71.6,64.4,78,30.03,6.0,SSW,15.0,-,N/A,,Haze,200,2013-06-24 12:49:00
8:55 AM,72.0,66.0,81,30.02,6.0,SSW,11.5,-,N/A,,Haze,210,2013-06-24 12:55:00
9:07 AM,71.6,66.2,83,30.03,6.0,SSW,12.7,-,N/A,,Haze,210,2013-06-24 13:07:00
9:39 AM,73.4,66.2,78,30.03,5.0,SSW,16.1,21.9,N/A,,Haze,210,2013-06-24 13:39:00
9:55 AM,73.9,66.0,76,30.02,5.0,SSW,16.1,21.9,N/A,,Haze,200,2013-06-24 13:55:00
10:07 AM,73.4,66.2,78,30.04,5.0,SSW,12.7,-,N/A,,Haze,210,2013-06-24 14:07:00
10:24 AM,71.6,66.2,83,30.04,5.0,SSW,15.0,21.9,N/A,,Haze,210,2013-06-24 14:24:00
10:50 AM,73.4,66.2,78,30.05,6.0,SW,18.4,26.5,N/A,,Haze,220,2013-06-24 14:50:00
10:55 AM,72.0,64.9,78,30.04,6.0,SW,17.3,25.3,N/A,,Haze,220,2013-06-24 14:55:00
11:55 AM,73.9,64.9,73,30.04,9.0,SW,13.8,-,N/A,,Mostly Cloudy,220,2013-06-24 15:55:00
12:55 PM,78.1,66.0,66,30.03,10.0,WSW,9.2,-,N/A,,Mostly Cloudy,250,2013-06-24 16:55:00
1:55 PM,75.9,64.9,69,30.01,10.0,SW,11.5,-,N/A,,Mostly Cloudy,230,2013-06-24 17:55:00
2:55 PM,79.0,64.9,62,29.98,10.0,SW,6.9,-,N/A,,Mostly Cloudy,230,2013-06-24 18:55:00
3:55 PM,79.0,64.9,62,29.99,10.0,SW,11.5,-,N/A,,Scattered Clouds,220,2013-06-24 19:55:00
4:55 PM,79.0,64.9,62,29.95,10.0,South,6.9,-,N/A,,Mostly Cloudy,190,2013-06-24 20:55:00
5:55 PM,75.0,64.9,71,29.97,10.0,SW,6.9,-,N/A,,Mostly Cloudy,230,2013-06-24 21:55:00
6:55 PM,75.9,64.0,67,29.95,10.0,SW,5.8,-,N/A,,Mostly Cloudy,220,2013-06-24 22:55:00
7:55 PM,75.0,64.0,69,29.93,10.0,South,5.8,-,N/A,,Mostly Cloudy,190,2013-06-24 23:55:00
8:55 PM,75.0,63.0,66,29.90,10.0,Calm,Calm,-,N/A,,Mostly Cloudy,0,2013-06-25 00:55:00
9:55 PM,73.0,64.0,73,29.87,10.0,Calm,Calm,-,N/A,,Mostly Cloudy,0,2013-06-25 01:55:00
10:55 PM,72.0,64.0,76,29.91,10.0,SSW,17.3,23.0,N/A,,Mostly Cloudy,200,2013-06-25 02:55:00
11:55 PM,68.0,61.0,78,29.93,10.0,SSW,12.7,-,0.00,Rain,Light Rain,210,2013-06-25 03:55:00